Content
SEND FEEDBACK

Daily
Averages
Monthly
Summary
United States of America

STATEN ISLAND, NEW YORK


Home > North America > United States > New York
Elevation: 152 feet     Latitude: 40 35N     Longitude: 074 09W

WEATHER
 
SELECT A DAY
Number of Records: 192,381;   Date Range: 1/1/95 - 10/21/14
 
SHARE

PRINT THIS DATA

[ ← Previous Day ]
WEATHER ALMANAC - SEPTEMBER 14, 2013
[ Next Day → ]
[ °C ]   °F
Weather ElementAverageHighLow
Temperature59.8 °F66.9 °F (4:51 pm)54 °F (10:51 pm)
Dewpoint45.2 °F46.9 °F (1:51 am)44.1 °F (6:51 am)
Humidity59.2 %72 % (10:51 pm)47 % (4:51 pm)
Barometer30.01 in30.14 in (11:51 pm)29.88 in (1:51 am)
Wind Speed10.8 mph16.1 mph (5:51 pm)
Wind Gust26.5 mph (12:51 pm)
Weather ElementAverage
Visibility10 mi
Wind DirectionWNW (304.3 °)

Weather ElementTotal
Precipitation---
Heating Degree Days4.6 (Base 65)
Growing Degree Days10.5 (Base 50)
Averaged from 23 records on September 14, 2013
WEATHER CONDITIONS BREAKOUT
WIND DIRECTION BREAKOUT
WEATHER BY HOUR - SEPTEMBER 14, 2013
[ °C ]   °F
Local TimeTemperatureDewpointHumidityBarometerVisibilityWind DirectionWind SpeedGust SpeedPrecipitationEventsConditions
1:51 AM57.9 °F46.9 °F67 %29.88 in10.0 miNW (310°)9.2 mphPartly Cloudy
2:51 AM57.0 °F46.0 °F67 %29.89 in10.0 miNW (320°)10.4 mph20.7 mphPartly Cloudy
3:51 AM55.9 °F45.0 °F67 %29.90 in10.0 miNW (310°)8.1 mphPartly Cloudy
4:51 AM55.9 °F45.0 °F67 %29.91 in10.0 miNNW (340°)9.2 mphPartly Cloudy
5:51 AM55.0 °F45.0 °F69 %29.93 in10.0 miNW (320°)10.4 mphPartly Cloudy
6:51 AM55.0 °F44.1 °F67 %29.96 in10.0 miNorth (350°)11.5 mphScattered Clouds
7:51 AM55.9 °F44.1 °F64 %29.97 in10.0 miNNW (330°)9.2 mphPartly Cloudy
8:51 AM59.0 °F44.1 °F58 %29.97 in10.0 miNW (320°)15.0 mph24.2 mphPartly Cloudy
9:51 AM61.0 °F44.1 °F54 %29.99 in10.0 miNNW (330°)13.8 mphPartly Cloudy
10:51 AM64.0 °F45.0 °F50 %29.99 in10.0 miNNW (330°)15.0 mph20.7 mphScattered Clouds
11:51 AM64.9 °F46.0 °F50 %30.00 in10.0 miNW (310°)12.7 mphMostly Cloudy
12:51 PM66.0 °F46.0 °F48 %30.00 in10.0 miNW (310°)10.4 mph26.5 mphMostly Cloudy
1:51 PM66.0 °F46.0 °F48 %30.01 in10.0 miWNW (290°)10.4 mph18.4 mphMostly Cloudy
2:51 PM64.9 °F46.0 °F50 %30.01 in10.0 miWest (280°)12.7 mph17.3 mphMostly Cloudy
3:51 PM64.9 °F46.0 °F50 %30.01 in10.0 miNW (310°)11.5 mph18.4 mphMostly Cloudy
4:51 PM66.9 °F46.0 °F47 %30.03 in10.0 miWNW (290°)12.7 mph18.4 mphMostly Cloudy
5:51 PM64.9 °F46.0 °F50 %30.04 in10.0 miWNW (290°)16.1 mph21.9 mphScattered Clouds
6:51 PM61.0 °F45.0 °F56 %30.07 in10.0 miWNW (290°)13.8 mph25.3 mphScattered Clouds
7:51 PM59.0 °F44.1 °F58 %30.09 in10.0 miWNW (290°)9.2 mphPartly Cloudy
8:51 PM57.0 °F45.0 °F64 %30.11 in10.0 miWest (280°)10.4 mphClear
9:51 PM55.9 °F45.0 °F67 %30.12 in10.0 miWNW (290°)6.9 mphClear
10:51 PM54.0 °F45.0 °F72 %30.13 in10.0 miWSW (240°)3.5 mphClear
11:51 PM54.0 °F45.0 °F72 %30.14 in10.0 miWest (270°)5.8 mphClear
Hourly data recorded from KEWR, located miles away from Staten Island, New York







STORIES FROM OUR PARTNERS